Terminal Aerodrome Forecast
Issued by NWS

Home | Current Version | Previous Version | Text Only | Print | Product List | Glossary On
Versions: 1 2 3 4 5 6 7 8 9 10 11 12 13 14 15 16 17 18 19 20 21 22 23 24 25 26 27 28 29 30 31 32 33 34 35 36 37 38 39 40 41 42 43 44 45 46 47 48 49 50
000
FTUS41 KCTP 062330
TAFBFD
TAF
KBFD 062330Z 0700/0724 16005KT P6SM -SHRA SCT025 BKN035
      TEMPO 0700/0701 2SM TSRA BR BKN020CB
     FM070300 17005KT 5SM -SHRA BR OVC015
     FM070600 20005KT 4SM BR OVC005
     FM071500 24008KT P6SM BKN250=

USA.gov is the U.S. government's official web portal to all federal, state and local government web resources and services.